| time (UTC) | temp C | wind direction | speed KPH | gust KPH | rain 1hr cm | rain 24hr cm | rain mn cm | humidity % | barometer mb |
| 20260503231535 | 20 | 242 | 11.3 | 29.0 | 0.00 | 0.00 | 0.00 | 45 | 1003.5 |
| 20260503230033 | 20 | 223 | 11.3 | 17.7 | 0.00 | 0.00 | 0.00 | 45 | 1003.6 |
| 20260503224531 | 20 | 255 | 14.5 | 29.0 | 0.00 | 0.00 | 0.00 | 44 | 1003.8 |
| 20260503223028 | 20 | 248 | 17.7 | 33.8 | 0.00 | 0.00 | 0.00 | 44 | 1004.0 |
| 20260503221528 | 20 | 248 | 16.1 | 24.1 | 0.00 | 0.00 | 0.00 | 44 | 1003.9 |
| 20260503220026 | 20 | 251 | 14.5 | 30.6 | 0.00 | 0.00 | 0.00 | 45 | 1003.8 |
| 20260503214523 | 20 | 211 | 14.5 | 24.1 | 0.00 | 0.00 | 0.00 | 46 | 1004.0 |
| 20260503213020 | 20 | 268 | 17.7 | 27.4 | 0.00 | 0.00 | 0.00 | 45 | 1004.1 |
| 20260503211523 | 19 | 240 | 17.7 | 32.2 | 0.00 | 0.00 | 0.00 | 45 | 1004.5 |
| 20260503210017 | 19 | 238 | 19.3 | 35.4 | 0.00 | 0.00 | 0.00 | 44 | 1004.6 |
| 20260503204513 | 19 | 238 | 16.1 | 35.4 | 0.00 | 0.00 | 0.00 | 46 | 1004.8 |
| 20260503203009 | 17 | 276 | 12.9 | 35.4 | 0.00 | 0.00 | 0.00 | 53 | 1005.1 |
| 20260503201508 | 17 | 202 | 11.3 | 33.8 | 0.00 | 0.00 | 0.00 | 52 | 1005.6 |
| 20260503200006 | 17 | 217 | 20.9 | 49.9 | 0.00 | 0.00 | 0.00 | 51 | 1006.0 |
| 20260503194503 | 17 | 240 | 12.9 | 40.2 | 0.00 | 0.00 | 0.00 | 51 | 1006.2 |
| 20260503193002 | 18 | 291 | 16.1 | 35.4 | 0.00 | 0.00 | 0.00 | 48 | 1006.3 |
| 20260503191600 | 17 | 239 | 14.5 | 33.8 | 0.00 | 0.00 | 0.00 | 45 | 1006.4 |
| 20260503190108 | 17 | 248 | 9.7 | 41.8 | 0.00 | 0.00 | 0.00 | 48 | 1006.4 |
| 20260503184556 | 17 | 179 | 19.3 | 33.8 | 0.00 | 0.00 | 0.00 | 47 | 1006.6 |
| 20260503183101 | 17 | 199 | 14.5 | 41.8 | 0.00 | 0.00 | 0.00 | 49 | 1006.7 |
| 20260503181550 | 16 | 197 | 16.1 | 37.0 | 0.00 | 0.00 | 0.00 | 51 | 1006.9 |
| 20260503180055 | 16 | 212 | 14.5 | 30.6 | 0.00 | 0.00 | 0.00 | 54 | 1007.2 |
| 20260503174543 | 15 | 213 | 12.9 | 35.4 | 0.00 | 0.00 | 0.00 | 58 | 1007.6 |
| 20260503173056 | 13 | 188 | 17.7 | 30.6 | 0.00 | 0.00 | 0.00 | 60 | 1008.0 |
| 20260503171541 | 13 | 184 | 16.1 | 40.2 | 0.00 | 0.00 | 0.00 | 61 | 1008.5 |
| 20260503081536 | 7 | 240 | 8.0 | 17.7 | 0.00 | 0.00 | 0.00 | 60 | 1012.3 |
| 20260503071517 | 7 | 232 | 8.0 | 20.9 | 0.00 | 0.00 | 0.00 | 62 | 1012.6 |
| 20260503054501 | 7 | 246 | 4.8 | 14.5 | 0.00 | 0.00 | 0.00 | 64 | 1013.4 |
| 20260503053100 | 6 | 222 | 4.8 | 12.9 | 0.00 | 0.00 | 0.00 | 64 | 1013.5 |
| 20260503051600 | 6 | 257 | 4.8 | 11.3 | 0.00 | 0.00 | 0.00 | 65 | 1013.6 |
| 20260503050053 | 6 | 263 | 4.8 | 11.3 | 0.00 | 0.00 | 0.00 | 66 | 1013.6 |
| 20260503044551 | 6 | 220 | 3.2 | 14.5 | 0.00 | 0.00 | 0.00 | 68 | 1013.8 |
| 20260503043053 | 6 | 234 | 3.2 | 11.3 | 0.00 | 0.00 | 0.00 | 69 | 1013.8 |
| 20260503041549 | 5 | 227 | 3.2 | 9.7 | 0.00 | 0.00 | 0.00 | 72 | 1013.9 |
| 20260503040049 | 4 | 227 | 1.6 | 6.4 | 0.00 | 0.00 | 0.00 | 75 | 1014.0 |
| 20260503034548 | 4 | 175 | 0.0 | 4.8 | 0.00 | 0.00 | 0.00 | 77 | 1014.2 |
| 20260503033047 | 4 | 132 | 0.0 | 0.0 | 0.00 | 0.00 | 0.00 | 77 | 1014.2 |
| 20260503031545 | 5 | 132 | 0.0 | 0.0 | 0.00 | 0.00 | 0.00 | 77 | 1014.3 |
| 20260503030044 | 5 | 132 | 0.0 | 0.0 | 0.00 | 0.00 | 0.00 | 75 | 1014.5 |
| 20260503024543 | 5 | 132 | 0.0 | 0.0 | 0.00 | 0.00 | 0.00 | 75 | 1014.5 |
| 20260503023043 | 5 | 132 | 0.0 | 3.2 | 0.00 | 0.00 | 0.00 | 74 | 1014.6 |
| 20260503021548 | 6 | 132 | 1.6 | 4.8 | 0.00 | 0.00 | 0.00 | 73 | 1014.6 |
| 20260503020050 | 6 | 131 | 0.0 | 3.2 | 0.00 | 0.00 | 0.00 | 71 | 1014.4 |
| 20260503014607 | 6 | 131 | 1.6 | 4.8 | 0.00 | 0.00 | 0.00 | 70 | 1014.3 |
| 20260503013041 | 7 | 136 | 0.0 | 4.8 | 0.00 | 0.00 | 0.00 | 69 | 1014.3 |
| 20260503011546 | 7 | 136 | 0.0 | 4.8 | 0.00 | 0.00 | 0.00 | 67 | 1014.3 |
| 20260503010049 | 7 | 136 | 1.6 | 9.7 | 0.00 | 0.00 | 0.00 | 66 | 1014.4 |
| 20260503004544 | 8 | 133 | 4.8 | 8.0 | 0.00 | 0.00 | 0.00 | 65 | 1014.4 |
| 20260503003036 | 8 | 148 | 1.6 | 9.7 | 0.00 | 0.00 | 0.00 | 63 | 1014.5 |
| 20260503001534 | 8 | 150 | 4.8 | 11.3 | 0.00 | 0.00 | 0.00 | 62 | 1014.4 |
| 20260503000033 | 9 | 126 | 6.4 | 12.9 | 0.00 | 0.00 | 0.00 | 60 | 1014.6 |
| 20260502234538 | 10 | 138 | 3.2 | 11.3 | 0.00 | 0.00 | 0.00 | 60 | 1014.7 |
| 20260502233029 | 10 | 117 | 4.8 | 14.5 | 0.00 | 0.00 | 0.00 | 58 | 1014.9 |